This is the latest recevied weather packets stored in our database for station/object N9XRG. If no packets are shown the sender has not sent any weather packets the latest 10 day(s).
| Time | Temp. | Humidity | Pressure | Rain* | Wind** | Luminosity | Snow |
|---|---|---|---|---|---|---|---|
| 1778094518 | 13.89° C | 44% | 1013.4 hPa | 0 mm | - | 463 W/m² | - |
| 1778094214 | 13.89° C | 39% | 1013.4 hPa | 0 mm | - | 446 W/m² | - |
| 1778093911 | 13.89° C | 46% | 1013.5 hPa | 0 mm | - | 359 W/m² | - |
| 1778093608 | 13.33° C | 45% | 1013.4 hPa | 0 mm | - | 420 W/m² | - |
| 1778093305 | 13.33° C | 43% | 1013.6 hPa | 0 mm | - | 415 W/m² | - |
| 1778093003 | 13.33° C | 45% | 1013.4 hPa | 0 mm | - | 396 W/m² | - |
| 1778092700 | 13.33° C | 43% | 1013.7 hPa | 0 mm | - | 336 W/m² | - |
| 1778092395 | 13.33° C | 42% | 1013.3 hPa | 0 mm | - | 282 W/m² | - |
| 1778092093 | 13.33° C | 42% | 1013.3 hPa | 0 mm | - | 267 W/m² | - |
| 1778091790 | 13.33° C | 44% | 1013.5 hPa | 0 mm | - | 283 W/m² | - |
| 1778091487 | 13.33° C | 45% | 1013.7 hPa | 0 mm | - | 296 W/m² | - |
| 1778091185 | 13.33° C | 43% | 1013.7 hPa | 0 mm | - | 340 W/m² | - |
| 1778090882 | 12.78° C | 46% | 1013.4 hPa | 0 mm | - | 230 W/m² | - |
| 1778090578 | 12.78° C | 45% | 1013.7 hPa | 0 mm | - | 224 W/m² | - |
| 1778090274 | 13.33° C | 44% | 1013.7 hPa | 0 mm | - | 255 W/m² | - |
| 1778089971 | 13.89° C | 44% | 1013.7 hPa | 0 mm | - | 263 W/m² | - |
| 1778089668 | 13.89° C | 44% | 1013.3 hPa | 0 mm | - | 325 W/m² | - |
| 1778089365 | 13.89° C | 41% | 1013.3 hPa | 0 mm | - | 394 W/m² | - |
| 1778089063 | 13.89° C | 43% | 1013.4 hPa | 0 mm | - | 512 W/m² | - |
| 1778088760 | 13.89° C | 42% | 1013.3 hPa | 0 mm | - | 530 W/m² | - |
| 1778088457 | 13.89° C | 44% | 1013.4 hPa | 0 mm | - | 475 W/m² | - |
| 1778088153 | 13.89° C | 40% | 1013.6 hPa | 0 mm | - | 472 W/m² | - |
| 1778087851 | 13.89° C | 45% | 1013.3 hPa | 0 mm | - | 458 W/m² | - |
| 1778087548 | 13.33° C | 44% | 1013.3 hPa | 0 mm | - | 462 W/m² | - |
| 1778087246 | 13.89° C | 41% | 1013.3 hPa | 0 mm | - | 427 W/m² | - |
* Rain latest hour (hover to see other rain measurements)
** Current wind speed in m/s (hover to see current wind gust speed)